Wetterdaten: Woche 15.11.21 - 21.11.21 (KW46)
Datum Zeit Temp. Aussen Temp. o. S. Temp +5cm Feuchte Auss Luftdruck Regen Sonnenschein Regendauer Solar Windben Empfang
15.11.2021 00:00 7,2 C 6,7 C 6,2 C 96 % 1026,5 hPa 0,0 l/m 0,00 h 0,00 h 0 W/m 4,1 km/h (1 Bft) 98,04 %
15.11.2021 01:00 7,4 C 6,7 C 6,3 C 96 % 1026,4 hPa 0,0 l/m 0,00 h 0,00 h 0 W/m 3,8 km/h (1 Bft) 96,87 %
15.11.2021 02:00 7,4 C 7,0 C 6,7 C 95 % 1026,2 hPa 0,0 l/m 0,00 h 0,00 h 0 W/m 5,9 km/h (2 Bft) 97,51 %
15.11.2021 03:00 7,4 C 6,7 C 6,6 C 94 % 1026,1 hPa 0,0 l/m 0,00 h 0,00 h 0 W/m 7,9 km/h (2 Bft) 98,65 %
15.11.2021 04:00 7,4 C 6,7 C 6,1 C 93 % 1026,0 hPa 0,0 l/m 0,00 h 0,00 h 0 W/m 7,6 km/h (2 Bft) 96,51 %
15.11.2021 05:00 7,2 C 6,7 C 6,1 C 93 % 1026,1 hPa 0,0 l/m 0,00 h 0,00 h 0 W/m 6,6 km/h (2 Bft) 97,79 %
15.11.2021 06:00 7,1 C 6,7 C 6,1 C 93 % 1025,9 hPa 0,0 l/m 0,00 h 0,00 h 0 W/m 6,0 km/h (2 Bft) 96,30 %
15.11.2021 07:00 7,0 C 6,7 C 6,1 C 93 % 1026,0 hPa 0,0 l/m 0,00 h 0,00 h 0 W/m 6,7 km/h (2 Bft) 96,36 %
15.11.2021 08:00 7,0 C 6,7 C 5,7 C 93 % 1026,2 hPa 0,0 l/m 0,00 h 0,00 h 7 W/m 6,6 km/h (2 Bft) 98,29 %
15.11.2021 09:00 6,8 C 6,4 C 5,6 C 93 % 1026,4 hPa 0,0 l/m 0,00 h 0,00 h 15 W/m 9,7 km/h (2 Bft) 96,64 %
15.11.2021 10:00 6,7 C 6,4 C 5,6 C 93 % 1026,5 hPa 0,0 l/m 0,00 h 0,00 h 23 W/m 11,6 km/h (2 Bft) 97,43 %
15.11.2021 11:00 6,8 C 6,7 C 5,6 C 93 % 1026,4 hPa 0,0 l/m 0,00 h 0,00 h 24 W/m 7,6 km/h (2 Bft) 97,72 %
15.11.2021 12:00 6,8 C 6,6 C 5,6 C 93 % 1025,8 hPa 0,0 l/m 0,00 h 0,00 h 38 W/m 6,9 km/h (2 Bft) 98,01 %
15.11.2021 13:00 6,9 C 6,7 C 5,6 C 93 % 1025,5 hPa 0,0 l/m 0,00 h 0,00 h 32 W/m 6,6 km/h (2 Bft) 97,13 %
15.11.2021 14:00 6,9 C 6,7 C 5,6 C 92 % 1025,2 hPa 0,0 l/m 0,00 h 0,00 h 22 W/m 6,9 km/h (2 Bft) 96,39 %
15.11.2021 15:00 6,8 C 6,6 C 5,3 C 90 % 1025,0 hPa 0,0 l/m 0,00 h 0,00 h 15 W/m 6,6 km/h (2 Bft) 99,43 %
15.11.2021 16:00 6,7 C 6,1 C 5,0 C 89 % 1025,0 hPa 0,0 l/m 0,00 h 0,00 h 6 W/m 7,2 km/h (2 Bft) 95,95 %
15.11.2021 17:00 6,5 C 6,1 C 5,0 C 90 % 1025,0 hPa 0,0 l/m 0,00 h 0,00 h 0 W/m 6,9 km/h (2 Bft) 98,00 %
15.11.2021 18:00 6,4 C 6,1 C 4,5 C 89 % 1025,1 hPa 0,0 l/m 0,00 h 0,00 h 0 W/m 6,6 km/h (2 Bft) 96,77 %
15.11.2021 19:00 6,4 C 6,1 C 4,4 C 90 % 1025,3 hPa 0,0 l/m 0,00 h 0,00 h 0 W/m 5,0 km/h (1 Bft) 96,23 %
15.11.2021 20:00 6,5 C 6,1 C 4,4 C 90 % 1025,5 hPa 0,0 l/m 0,00 h 0,00 h 0 W/m 5,1 km/h (1 Bft) 97,93 %
15.11.2021 21:00 6,4 C 6,1 C 4,4 C 89 % 1025,6 hPa 0,0 l/m 0,00 h 0,00 h 0 W/m 3,7 km/h (1 Bft) 97,45 %
15.11.2021 22:00 6,3 C 5,7 C 4,2 C 91 % 1025,5 hPa 0,0 l/m 0,00 h 0,00 h 0 W/m 0,0 km/h (0 Bft) 94,45 %
15.11.2021 23:00 6,1 C 5,6 C 4,4 C 91 % 1025,5 hPa 0,0 l/m 0,00 h 0,00 h 0 W/m 2,9 km/h (1 Bft) 98,43 %
16.11.2021 00:00 6,1 C 5,6 C 4,4 C 91 % 1025,2 hPa 0,0 l/m 0,00 h 0,00 h 0 W/m 4,1 km/h (1 Bft) 96,67 %
16.11.2021 01:00 6,1 C 5,6 C 4,3 C 91 % 1024,9 hPa 0,0 l/m 0,00 h 0,00 h 0 W/m 2,0 km/h (1 Bft) 97,97 %
16.11.2021 02:00 6,0 C 5,6 C 4,0 C 91 % 1024,7 hPa 0,0 l/m 0,00 h 0,00 h 0 W/m 0,0 km/h (0 Bft) 96,45 %
16.11.2021 03:00 6,0 C 5,6 C 3,9 C 91 % 1024,3 hPa 0,0 l/m 0,00 h 0,00 h 0 W/m 0,3 km/h (0 Bft) 98,22 %
16.11.2021 04:00 5,9 C 5,6 C 3,9 C 91 % 1024,0 hPa 0,0 l/m 0,00 h 0,00 h 0 W/m 1,1 km/h (0 Bft) 98,15 %
16.11.2021 05:00 6,0 C 5,6 C 3,9 C 91 % 1024,0 hPa 0,0 l/m 0,00 h 0,00 h 0 W/m 1,1 km/h (0 Bft) 95,44 %
16.11.2021 06:00 6,0 C 5,6 C 3,9 C 91 % 1023,9 hPa 0,0 l/m 0,00 h 0,00 h 0 W/m 1,5 km/h (1 Bft) 99,29 %
16.11.2021 07:00 5,9 C 5,3 C 3,8 C 91 % 1024,1 hPa 0,0 l/m 0,00 h 0,00 h 0 W/m 5,2 km/h (1 Bft) 96,79 %
16.11.2021 08:00 5,7 C 5,0 C 3,5 C 92 % 1024,2 hPa 0,0 l/m 0,00 h 0,00 h 7 W/m 0,0 km/h (0 Bft) 97,44 %
16.11.2021 09:00 5,7 C 5,2 C 3,5 C 94 % 1024,3 hPa 0,0 l/m 0,00 h 0,00 h 20 W/m 3,2 km/h (1 Bft) 97,86 %
16.11.2021 10:00 5,8 C 5,6 C 4,0 C 95 % 1024,0 hPa 0,0 l/m 0,00 h 0,00 h 44 W/m 3,4 km/h (1 Bft) 96,16 %
16.11.2021 11:00 6,0 C 6,2 C 4,7 C 95 % 1023,5 hPa 0,0 l/m 0,00 h 0,00 h 78 W/m 1,0 km/h (0 Bft) 96,16 %
16.11.2021 12:00 6,3 C 6,6 C 5,0 C 94 % 1023,0 hPa 0,0 l/m 0,00 h 0,00 h 68 W/m 0,0 km/h (0 Bft) 98,86 %
16.11.2021 13:00 6,4 C 6,1 C 5,0 C 91 % 1022,6 hPa 0,0 l/m 0,00 h 0,00 h 45 W/m 0,0 km/h (0 Bft) 96,70 %
16.11.2021 14:00 6,4 C 6,0 C 4,5 C 91 % 1022,2 hPa 0,0 l/m 0,00 h 0,00 h 27 W/m 0,0 km/h (0 Bft) 96,92 %
16.11.2021 15:00 6,1 C 5,6 C 4,1 C 92 % 1021,9 hPa 0,0 l/m 0,00 h 0,00 h 11 W/m 0,0 km/h (0 Bft) 94,96 %
16.11.2021 16:00 5,9 C 5,3 C 3,9 C 93 % 1021,8 hPa 0,0 l/m 0,00 h 0,00 h 4 W/m 0,0 km/h (0 Bft) 98,23 %
16.11.2021 17:00 5,5 C 5,0 C 3,7 C 94 % 1021,7 hPa 0,0 l/m 0,00 h 0,00 h 0 W/m 0,0 km/h (0 Bft) 96,80 %
16.11.2021 18:00 5,5 C 5,0 C 3,9 C 94 % 1021,9 hPa 0,0 l/m 0,00 h 0,00 h 0 W/m 0,0 km/h (0 Bft) 97,82 %
16.11.2021 19:00 5,5 C 5,0 C 3,8 C 95 % 1021,9 hPa 0,0 l/m 0,00 h 0,00 h 0 W/m 0,0 km/h (0 Bft) 96,57 %
16.11.2021 20:00 5,3 C 4,6 C 3,3 C 95 % 1021,8 hPa 0,0 l/m 0,00 h 0,07 h 0 W/m 3,1 km/h (1 Bft) 95,87 %
16.11.2021 21:00 5,3 C 5,0 C 3,3 C 96 % 1021,6 hPa 0,0 l/m 0,00 h 0,00 h 0 W/m 2,5 km/h (1 Bft) 98,43 %
16.11.2021 22:00 5,2 C 4,5 C 3,3 C 96 % 1021,5 hPa 0,0 l/m 0,00 h 0,00 h 0 W/m 2,0 km/h (1 Bft) 98,07 %
16.11.2021 23:00 5,1 C 4,4 C 3,4 C 96 % 1021,3 hPa 0,0 l/m 0,00 h 0,00 h 0 W/m 2,6 km/h (1 Bft) 95,60 %
17.11.2021 00:00 4,9 C 4,4 C 3,3 C 96 % 1021,1 hPa 0,0 l/m 0,00 h 0,00 h 0 W/m 4,5 km/h (1 Bft) 98,21 %
17.11.2021 01:00 4,8 C 4,4 C 3,8 C 96 % 1021,0 hPa 0,0 l/m 0,00 h 0,00 h 0 W/m 4,5 km/h (1 Bft) 98,22 %
17.11.2021 02:00 5,0 C 4,4 C 3,5 C 95 % 1021,2 hPa 0,0 l/m 0,00 h 0,00 h 0 W/m 3,4 km/h (1 Bft) 96,46 %
17.11.2021 03:00 4,9 C 4,4 C 3,3 C 96 % 1020,7 hPa 0,0 l/m 0,00 h 0,00 h 0 W/m 7,1 km/h (2 Bft) 96,98 %
17.11.2021 04:00 4,9 C 4,4 C 3,9 C 96 % 1020,6 hPa 0,0 l/m 0,00 h 0,00 h 0 W/m 5,7 km/h (1 Bft) 98,01 %
17.11.2021 05:00 5,1 C 4,7 C 3,9 C 96 % 1021,0 hPa 0,0 l/m 0,00 h 0,00 h 0 W/m 5,5 km/h (1 Bft) 97,58 %
17.11.2021 06:00 5,2 C 5,0 C 4,0 C 96 % 1020,8 hPa 0,0 l/m 0,00 h 0,00 h 0 W/m 7,1 km/h (2 Bft) 96,04 %
17.11.2021 07:00 5,4 C 5,0 C 4,4 C 96 % 1020,6 hPa 0,0 l/m 0,00 h 0,00 h 9 W/m 7,1 km/h (2 Bft) 97,61 %
17.11.2021 08:00 5,7 C 5,4 C 4,7 C 96 % 1020,9 hPa 0,0 l/m 0,47 h 0,00 h 32 W/m 9,7 km/h (2 Bft) 95,53 %
17.11.2021 09:00 6,1 C 5,9 C 5,0 C 95 % 1021,1 hPa 0,0 l/m 0,00 h 0,00 h 16 W/m 6,9 km/h (2 Bft) 97,44 %
17.11.2021 10:00 6,7 C 6,5 C 5,4 C 95 % 1021,3 hPa 0,0 l/m 0,00 h 0,00 h 33 W/m 10,5 km/h (2 Bft) 98,86 %
17.11.2021 11:00 7,5 C 7,2 C 6,1 C 95 % 1021,6 hPa 0,0 l/m 0,00 h 0,00 h 38 W/m 9,4 km/h (2 Bft) 95,95 %
17.11.2021 12:00 7,9 C 7,6 C 6,5 C 95 % 1021,6 hPa 0,0 l/m 0,00 h 0,03 h 49 W/m 10,7 km/h (2 Bft) 98,31 %
17.11.2021 13:00 8,1 C 7,8 C 6,5 C 96 % 1021,6 hPa 0,2 l/m 0,00 h 0,10 h 35 W/m 9,3 km/h (2 Bft) 98,87 %
17.11.2021 14:00 8,5 C 8,0 C 6,9 C 97 % 1022,0 hPa 0,0 l/m 0,00 h 0,00 h 40 W/m 9,6 km/h (2 Bft) 95,13 %
17.11.2021 15:00 8,8 C 8,3 C 7,2 C 97 % 1022,3 hPa 0,0 l/m 0,00 h 0,00 h 19 W/m 4,9 km/h (1 Bft) 99,02 %
17.11.2021 16:00 8,5 C 7,8 C 6,9 C 97 % 1022,6 hPa 0,0 l/m 0,00 h 0,00 h 11 W/m 5,6 km/h (1 Bft) 96,51 %
17.11.2021 17:00 8,1 C 7,2 C 6,5 C 97 % 1023,2 hPa 0,0 l/m 0,00 h 0,00 h 0 W/m 6,2 km/h (2 Bft) 96,05 %
17.11.2021 18:00 8,0 C 7,3 C 6,6 C 97 % 1024,0 hPa 0,0 l/m 0,00 h 0,00 h 0 W/m 5,1 km/h (1 Bft) 98,77 %
17.11.2021 19:00 7,8 C 7,1 C 6,3 C 97 % 1025,0 hPa 0,0 l/m 0,00 h 0,00 h 0 W/m 1,6 km/h (1 Bft) 97,11 %
17.11.2021 20:00 7,0 C 6,0 C 5,4 C 97 % 1025,7 hPa 0,0 l/m 0,00 h 0,00 h 0 W/m 0,0 km/h (0 Bft) 97,33 %
17.11.2021 21:00 6,2 C 5,3 C 4,7 C 97 % 1026,3 hPa 0,0 l/m 0,00 h 0,00 h 0 W/m 0,0 km/h (0 Bft) 97,12 %
17.11.2021 22:00 5,5 C 4,8 C 4,3 C 97 % 1026,7 hPa 0,0 l/m 0,00 h 0,00 h 0 W/m 0,0 km/h (0 Bft) 98,64 %
17.11.2021 23:00 5,1 C 4,1 C 3,6 C 97 % 1027,1 hPa 0,0 l/m 0,00 h 0,00 h 0 W/m 0,0 km/h (0 Bft) 94,43 %
18.11.2021 00:00 5,1 C 4,4 C 4,0 C 97 % 1027,2 hPa 0,0 l/m 0,00 h 0,00 h 0 W/m 0,2 km/h (0 Bft) 97,56 %
18.11.2021 01:00 5,4 C 5,0 C 4,4 C 97 % 1027,2 hPa 0,0 l/m 0,00 h 0,00 h 0 W/m 4,1 km/h (1 Bft) 98,57 %
18.11.2021 02:00 5,4 C 4,9 C 4,4 C 97 % 1027,5 hPa 0,0 l/m 0,00 h 0,00 h 0 W/m 8,2 km/h (2 Bft) 94,92 %
18.11.2021 03:00 5,3 C 4,6 C 4,4 C 97 % 1027,8 hPa 0,2 l/m 0,00 h 0,00 h 0 W/m 4,5 km/h (1 Bft) 97,63 %
18.11.2021 04:00 5,2 C 4,6 C 4,4 C 97 % 1028,0 hPa 0,0 l/m 0,00 h 0,00 h 0 W/m 5,8 km/h (2 Bft) 96,97 %
18.11.2021 05:00 5,4 C 4,6 C 4,4 C 97 % 1028,2 hPa 0,0 l/m 0,00 h 0,00 h 0 W/m 8,0 km/h (2 Bft) 97,13 %
18.11.2021 06:00 5,5 C 5,1 C 4,8 C 97 % 1028,3 hPa 0,0 l/m 0,00 h 0,00 h 0 W/m 11,2 km/h (2 Bft) 94,39 %
18.11.2021 07:00 5,8 C 5,6 C 5,1 C 97 % 1028,3 hPa 0,0 l/m 0,00 h 0,00 h 0 W/m 11,1 km/h (2 Bft) 99,12 %
18.11.2021 08:00 6,1 C 5,8 C 5,6 C 97 % 1028,9 hPa 0,0 l/m 0,00 h 0,00 h 20 W/m 10,1 km/h (2 Bft) 96,24 %
18.11.2021 09:00 6,7 C 6,5 C 6,2 C 97 % 1029,2 hPa 0,0 l/m 0,00 h 0,00 h 51 W/m 13,0 km/h (3 Bft) 96,43 %
18.11.2021 10:00 7,5 C 8,1 C 6,8 C 95 % 1029,5 hPa 0,0 l/m 0,37 h 0,00 h 120 W/m 16,9 km/h (3 Bft) 98,19 %
18.11.2021 11:00 8,7 C 8,6 C 7,5 C 91 % 1029,7 hPa 0,0 l/m 0,00 h 0,00 h 70 W/m 14,9 km/h (3 Bft) 98,29 %
18.11.2021 12:00 9,7 C 10,4 C 8,2 C 88 % 1029,3 hPa 0,0 l/m 0,03 h 0,00 h 102 W/m 16,7 km/h (3 Bft) 96,59 %
18.11.2021 13:00 10,6 C 13,7 C 8,3 C 84 % 1028,9 hPa 0,0 l/m 1,00 h 0,00 h 247 W/m 15,5 km/h (3 Bft) 99,59 %
18.11.2021 14:00 11,0 C 12,7 C 8,3 C 81 % 1028,4 hPa 0,0 l/m 1,00 h 0,00 h 194 W/m 16,4 km/h (3 Bft) 96,58 %
18.11.2021 15:00 10,6 C 10,3 C 7,8 C 83 % 1028,1 hPa 0,0 l/m 0,23 h 0,00 h 65 W/m 13,6 km/h (3 Bft) 97,15 %
18.11.2021 16:00 9,8 C 8,8 C 6,7 C 85 % 1028,5 hPa 0,0 l/m 0,00 h 0,00 h 16 W/m 6,2 km/h (2 Bft) 99,01 %
18.11.2021 17:00 9,2 C 8,5 C 6,4 C 88 % 1028,6 hPa 0,0 l/m 0,00 h 0,00 h 0 W/m 9,7 km/h (2 Bft) 93,99 %
18.11.2021 18:00 9,5 C 8,9 C 6,7 C 88 % 1028,8 hPa 0,0 l/m 0,00 h 0,00 h 0 W/m 15,2 km/h (3 Bft) 99,79 %
18.11.2021 19:00 9,7 C 9,2 C 6,8 C 88 % 1029,3 hPa 0,0 l/m 0,00 h 0,00 h 0 W/m 12,2 km/h (2 Bft) 94,75 %
18.11.2021 20:00 9,8 C 9,4 C 7,0 C 88 % 1029,3 hPa 0,0 l/m 0,00 h 0,00 h 0 W/m 14,8 km/h (3 Bft) 97,21 %
18.11.2021 21:00 9,7 C 9,0 C 6,7 C 90 % 1029,7 hPa 0,0 l/m 0,00 h 0,00 h 0 W/m 12,5 km/h (3 Bft) 96,63 %
18.11.2021 22:00 9,4 C 8,9 C 6,7 C 92 % 1030,0 hPa 0,0 l/m 0,00 h 0,00 h 0 W/m 13,5 km/h (3 Bft) 97,36 %
18.11.2021 23:00 9,3 C 8,3 C 6,7 C 94 % 1029,9 hPa 0,0 l/m 0,00 h 0,00 h 0 W/m 11,7 km/h (2 Bft) 97,37 %
19.11.2021 00:00 9,2 C 8,5 C 6,7 C 95 % 1029,6 hPa 0,0 l/m 0,00 h 0,00 h 0 W/m 10,2 km/h (2 Bft) 98,27 %
19.11.2021 01:00 9,2 C 8,9 C 7,2 C 96 % 1029,4 hPa 0,0 l/m 0,00 h 0,00 h 0 W/m 10,1 km/h (2 Bft) 96,80 %
19.11.2021 02:00 9,3 C 8,5 C 7,2 C 95 % 1029,5 hPa 0,0 l/m 0,00 h 0,00 h 0 W/m 8,6 km/h (2 Bft) 98,36 %
19.11.2021 03:00 9,2 C 8,3 C 6,9 C 96 % 1029,6 hPa 0,0 l/m 0,00 h 0,00 h 0 W/m 5,6 km/h (1 Bft) 96,73 %
19.11.2021 04:00 9,2 C 8,3 C 7,2 C 96 % 1029,3 hPa 0,0 l/m 0,00 h 0,00 h 0 W/m 9,7 km/h (2 Bft) 97,72 %
19.11.2021 05:00 9,4 C 8,9 C 7,2 C 97 % 1029,4 hPa 0,0 l/m 0,00 h 0,00 h 0 W/m 13,0 km/h (3 Bft) 96,58 %
19.11.2021 06:00 9,4 C 8,9 C 7,5 C 97 % 1029,4 hPa 0,0 l/m 0,00 h 0,00 h 0 W/m 13,1 km/h (3 Bft) 98,79 %
19.11.2021 07:00 9,6 C 8,9 C 7,8 C 98 % 1029,6 hPa 0,2 l/m 0,00 h 0,03 h 0 W/m 9,8 km/h (2 Bft) 96,44 %
19.11.2021 08:00 9,6 C 8,9 C 7,8 C 98 % 1029,9 hPa 0,0 l/m 0,00 h 0,00 h 7 W/m 12,9 km/h (3 Bft) 97,63 %
19.11.2021 09:00 9,8 C 9,3 C 8,1 C 98 % 1030,1 hPa 0,2 l/m 0,00 h 0,00 h 18 W/m 10,3 km/h (2 Bft) 97,00 %
19.11.2021 10:00 10,0 C 9,7 C 8,5 C 98 % 1030,2 hPa 0,0 l/m 0,00 h 0,00 h 47 W/m 10,2 km/h (2 Bft) 96,90 %
19.11.2021 11:00 10,3 C 10,0 C 8,9 C 98 % 1030,4 hPa 0,0 l/m 0,00 h 0,00 h 46 W/m 10,7 km/h (2 Bft) 97,10 %
19.11.2021 12:00 10,5 C 10,4 C 9,1 C 98 % 1030,2 hPa 0,0 l/m 0,00 h 0,00 h 57 W/m 9,7 km/h (2 Bft) 99,49 %
19.11.2021 13:00 10,8 C 10,7 C 9,4 C 98 % 1030,1 hPa 0,0 l/m 0,00 h 0,00 h 40 W/m 9,5 km/h (2 Bft) 95,51 %
19.11.2021 14:00 11,2 C 10,9 C 9,4 C 96 % 1029,6 hPa 0,0 l/m 0,00 h 0,00 h 35 W/m 9,1 km/h (2 Bft) 99,22 %
19.11.2021 15:00 11,2 C 10,7 C 9,4 C 95 % 1029,5 hPa 0,0 l/m 0,00 h 0,00 h 17 W/m 9,2 km/h (2 Bft) 96,60 %
19.11.2021 16:00 11,1 C 10,6 C 9,4 C 95 % 1029,6 hPa 0,0 l/m 0,00 h 0,00 h 7 W/m 7,4 km/h (2 Bft) 95,61 %
19.11.2021 17:00 11,0 C 10,6 C 9,0 C 95 % 1029,8 hPa 0,0 l/m 0,00 h 0,00 h 0 W/m 7,3 km/h (2 Bft) 98,93 %
19.11.2021 18:00 10,9 C 10,5 C 8,9 C 95 % 1030,0 hPa 0,0 l/m 0,00 h 0,00 h 0 W/m 5,1 km/h (1 Bft) 97,55 %
19.11.2021 19:00 10,8 C 10,1 C 8,9 C 95 % 1030,2 hPa 0,0 l/m 0,00 h 0,00 h 0 W/m 4,3 km/h (1 Bft) 95,30 %
19.11.2021 20:00 10,8 C 10,0 C 8,9 C 95 % 1030,3 hPa 0,0 l/m 0,00 h 0,00 h 0 W/m 5,8 km/h (2 Bft) 98,79 %
19.11.2021 21:00 10,6 C 10,0 C 8,9 C 95 % 1030,4 hPa 0,0 l/m 0,00 h 0,00 h 0 W/m 5,6 km/h (1 Bft) 97,15 %
19.11.2021 22:00 10,5 C 9,8 C 8,6 C 95 % 1030,2 hPa 0,0 l/m 0,00 h 0,00 h 0 W/m 5,0 km/h (1 Bft) 96,79 %
19.11.2021 23:00 10,2 C 9,4 C 8,3 C 95 % 1030,0 hPa 0,0 l/m 0,00 h 0,00 h 0 W/m 2,0 km/h (1 Bft) 97,67 %
20.11.2021 00:00 10,1 C 9,4 C 8,3 C 95 % 1029,9 hPa 0,0 l/m 0,00 h 0,00 h 0 W/m 1,5 km/h (1 Bft) 97,31 %
20.11.2021 01:00 10,0 C 9,4 C 8,3 C 95 % 1029,6 hPa 0,0 l/m 0,00 h 0,00 h 0 W/m 2,1 km/h (1 Bft) 97,58 %
20.11.2021 02:00 10,0 C 9,4 C 8,3 C 95 % 1029,3 hPa 0,0 l/m 0,00 h 0,00 h 0 W/m 4,0 km/h (1 Bft) 97,15 %
20.11.2021 03:00 10,0 C 9,4 C 8,3 C 94 % 1028,8 hPa 0,0 l/m 0,00 h 0,00 h 0 W/m 4,9 km/h (1 Bft) 99,08 %
20.11.2021 04:00 10,0 C 9,4 C 8,3 C 94 % 1028,4 hPa 0,0 l/m 0,00 h 0,00 h 0 W/m 5,5 km/h (1 Bft) 95,57 %
20.11.2021 05:00 9,9 C 9,4 C 8,0 C 95 % 1028,1 hPa 0,0 l/m 0,00 h 0,00 h 0 W/m 3,3 km/h (1 Bft) 99,21 %
20.11.2021 06:00 9,7 C 9,4 C 7,8 C 94 % 1027,8 hPa 0,0 l/m 0,00 h 0,00 h 0 W/m 2,3 km/h (1 Bft) 97,56 %
20.11.2021 07:00 9,7 C 9,4 C 7,8 C 94 % 1027,4 hPa 0,0 l/m 0,00 h 0,00 h 0 W/m 4,4 km/h (1 Bft) 95,56 %
20.11.2021 08:00 9,7 C 9,4 C 7,8 C 94 % 1027,4 hPa 0,0 l/m 0,00 h 0,00 h 9 W/m 4,3 km/h (1 Bft) 98,36 %
20.11.2021 09:00 9,8 C 9,4 C 8,1 C 93 % 1027,0 hPa 0,0 l/m 0,00 h 0,00 h 24 W/m 7,0 km/h (2 Bft) 97,29 %
20.11.2021 10:00 10,1 C 9,9 C 8,3 C 92 % 1026,6 hPa 0,0 l/m 0,00 h 0,00 h 42 W/m 8,7 km/h (2 Bft) 96,94 %
20.11.2021 11:00 10,4 C 10,0 C 8,3 C 89 % 1026,1 hPa 0,0 l/m 0,00 h 0,00 h 56 W/m 12,9 km/h (3 Bft) 99,29 %
20.11.2021 12:00 10,4 C 10,0 C 8,3 C 88 % 1025,3 hPa 0,0 l/m 0,00 h 0,00 h 54 W/m 14,7 km/h (3 Bft) 94,63 %
20.11.2021 13:00 10,4 C 10,0 C 8,0 C 87 % 1024,3 hPa 0,0 l/m 0,00 h 0,00 h 50 W/m 12,1 km/h (2 Bft) 99,36 %
20.11.2021 14:00 10,1 C 9,6 C 7,6 C 85 % 1023,3 hPa 0,0 l/m 0,00 h 0,00 h 37 W/m 14,0 km/h (3 Bft) 98,15 %
20.11.2021 15:00 9,7 C 9,2 C 7,1 C 86 % 1022,4 hPa 0,0 l/m 0,00 h 0,00 h 17 W/m 10,9 km/h (2 Bft) 96,29 %
20.11.2021 16:00 9,3 C 8,7 C 6,7 C 87 % 1021,5 hPa 0,0 l/m 0,00 h 0,00 h 7 W/m 11,7 km/h (2 Bft) 98,15 %
20.11.2021 17:00 8,9 C 8,3 C 6,1 C 87 % 1020,7 hPa 0,0 l/m 0,00 h 0,00 h 0 W/m 8,1 km/h (2 Bft) 96,78 %
20.11.2021 18:00 8,6 C 8,1 C 6,1 C 87 % 1020,1 hPa 0,0 l/m 0,00 h 0,00 h 0 W/m 12,2 km/h (2 Bft) 95,94 %
20.11.2021 19:00 8,5 C 7,9 C 5,6 C 88 % 1019,5 hPa 0,0 l/m 0,00 h 0,00 h 0 W/m 7,1 km/h (2 Bft) 99,36 %
20.11.2021 20:00 8,4 C 7,8 C 5,6 C 88 % 1018,8 hPa 0,0 l/m 0,00 h 0,00 h 0 W/m 6,5 km/h (2 Bft) 95,77 %
20.11.2021 21:00 8,1 C 7,5 C 5,6 C 89 % 1018,4 hPa 0,0 l/m 0,00 h 0,00 h 0 W/m 8,0 km/h (2 Bft) 97,58 %
20.11.2021 22:00 8,0 C 7,4 C 5,6 C 89 % 1017,6 hPa 0,0 l/m 0,00 h 0,00 h 0 W/m 9,8 km/h (2 Bft) 97,51 %
20.11.2021 23:00 8,1 C 7,7 C 5,5 C 88 % 1016,8 hPa 0,0 l/m 0,00 h 0,00 h 0 W/m 10,1 km/h (2 Bft) 98,01 %
21.11.2021 00:00 7,9 C 7,2 C 4,9 C 90 % 1016,2 hPa 0,0 l/m 0,00 h 0,00 h 0 W/m 11,7 km/h (2 Bft) 96,39 %
21.11.2021 01:00 7,4 C 6,7 C 4,4 C 93 % 1015,5 hPa 0,0 l/m 0,00 h 0,00 h 0 W/m 11,8 km/h (2 Bft) 97,29 %
21.11.2021 02:00 7,1 C 6,5 C 4,4 C 95 % 1014,8 hPa 0,2 l/m 0,00 h 0,03 h 0 W/m 7,3 km/h (2 Bft) 97,43 %
21.11.2021 03:00 7,0 C 6,7 C 4,4 C 96 % 1014,2 hPa 0,0 l/m 0,00 h 0,00 h 0 W/m 6,6 km/h (2 Bft) 94,54 %
21.11.2021 04:00 7,0 C 6,7 C 4,6 C 96 % 1013,4 hPa 0,0 l/m 0,00 h 0,03 h 0 W/m 10,1 km/h (2 Bft) 98,26 %
21.11.2021 05:00 7,0 C 6,7 C 5,0 C 97 % 1012,9 hPa 0,0 l/m 0,00 h 0,00 h 0 W/m 8,1 km/h (2 Bft) 98,58 %
21.11.2021 06:00 7,0 C 6,7 C 5,0 C 97 % 1012,4 hPa 0,0 l/m 0,00 h 0,00 h 0 W/m 8,7 km/h (2 Bft) 96,22 %
21.11.2021 07:00 7,0 C 6,7 C 5,0 C 97 % 1012,0 hPa 0,0 l/m 0,00 h 0,00 h 0 W/m 8,5 km/h (2 Bft) 98,22 %
21.11.2021 08:00 7,1 C 6,7 C 5,0 C 97 % 1012,1 hPa 0,6 l/m 0,00 h 0,10 h 8 W/m 6,6 km/h (2 Bft) 99,14 %
21.11.2021 09:00 7,3 C 6,8 C 5,5 C 97 % 1012,3 hPa 0,0 l/m 0,00 h 0,00 h 28 W/m 5,6 km/h (1 Bft) 95,23 %
21.11.2021 10:00 7,7 C 7,4 C 5,9 C 98 % 1012,4 hPa 0,0 l/m 0,00 h 0,00 h 64 W/m 5,4 km/h (1 Bft) 97,49 %
21.11.2021 11:00 8,3 C 8,2 C 6,7 C 98 % 1012,6 hPa 0,0 l/m 0,00 h 0,17 h 66 W/m 7,1 km/h (2 Bft) 97,16 %
21.11.2021 12:00 8,7 C 8,8 C 7,2 C 98 % 1012,5 hPa 0,0 l/m 0,00 h 0,00 h 97 W/m 9,2 km/h (2 Bft) 97,01 %
21.11.2021 13:00 8,9 C 9,4 C 7,2 C 97 % 1012,5 hPa 0,0 l/m 0,00 h 0,00 h 96 W/m 9,3 km/h (2 Bft) 98,36 %
21.11.2021 14:00 8,9 C 9,6 C 6,7 C 90 % 1012,4 hPa 0,0 l/m 0,10 h 0,00 h 102 W/m 9,1 km/h (2 Bft) 97,72 %
21.11.2021 15:00 8,9 C 8,4 C 6,6 C 86 % 1012,6 hPa 0,0 l/m 0,00 h 0,00 h 43 W/m 10,4 km/h (2 Bft) 96,44 %
21.11.2021 16:00 8,4 C 7,3 C 5,6 C 88 % 1013,0 hPa 0,0 l/m 0,07 h 0,00 h 15 W/m 3,5 km/h (1 Bft) 98,79 %
21.11.2021 17:00 7,5 C 6,3 C 4,7 C 89 % 1013,5 hPa 0,0 l/m 0,00 h 0,00 h 0 W/m 5,7 km/h (1 Bft) 97,79 %
21.11.2021 18:00 6,9 C 5,8 C 4,3 C 91 % 1014,3 hPa 0,0 l/m 0,00 h 0,00 h 0 W/m 1,3 km/h (1 Bft) 95,58 %
21.11.2021 19:00 6,3 C 4,9 C 3,5 C 92 % 1015,0 hPa 0,0 l/m 0,00 h 0,00 h 0 W/m 1,3 km/h (1 Bft) 96,87 %
21.11.2021 20:00 5,4 C 3,9 C 2,6 C 92 % 1015,7 hPa 0,0 l/m 0,00 h 0,00 h 0 W/m 2,0 km/h (1 Bft) 98,58 %
21.11.2021 21:00 4,6 C 3,3 C 2,2 C 93 % 1016,4 hPa 0,0 l/m 0,00 h 0,00 h 0 W/m 4,9 km/h (1 Bft) 97,62 %
21.11.2021 22:00 4,2 C 3,2 C 2,1 C 94 % 1016,8 hPa 0,0 l/m 0,00 h 0,00 h 0 W/m 5,8 km/h (2 Bft) 96,88 %
21.11.2021 23:00 3,7 C 2,8 C 1,7 C 94 % 1017,3 hPa 0,0 l/m 0,00 h 0,00 h 0 W/m 5,9 km/h (2 Bft) 98,22 %
Min-Datum _ 21.11.21 21.11.21 21.11.21 18.11.21 21.11.21 - - - - 15.11.21 16.11.21
_ Min-Zeit 23:54 22:44 22:50 14:10 07:42 - - - - 00:00 15:50
Minimum _ 3,5 C 2,8 C 1,7 C 81 % 1011,8 hPa - - - - 0,0 km/h (0 Bft) 37,50 %
Max-Datum _ 19.11.21 18.11.21 19.11.21 19.11.21 19.11.21 21.11.21 17.11.21 16.11.21 18.11.21 18.11.21 15.11.21
_ Max-Zeit 14:50 13:12 12:28 06:40 21:48 08:20 08:10 20:28 13:08 15:06 00:00
Maximum _ 11,3 C 15,0 C 9,4 C 98 % 1030,5 hPa 0,6 l/m 0,03 h 0,03 h 291 W/m 38,6 km/h
SO (5 Bft)
100,00 %
Durchschnitt _ 7,7 C 7,2 C 5,9 C 93 % 1024,0 hPa #1,6 l/m #3:16 h #34 min. 43 W/m 6,8 km/h (2 Bft) 97,28 %
© 2021 W. Hausmann